Weather History for KBRO - July, 2013

Change the Weather History Date:

Friday, July 5, 2013

  Actual Average Record
Temperature  
Mean Temperature 85 °F 85 °F  
Max Temperature 95 °F 93 °F 98 °F (1900)
Min Temperature 74 °F 76 °F 68 °F (1901)
Degree Days  
Heating Degree Days 0 0  
Month to date heating degree days 0 0  
Since 1 June heating degree days 0 0  
Since 1 July heating degree days 0 0  
Cooling Degree Days 20 20  
Month to date cooling degree days 99 100  
Year to date cooling degree days 1844 1760  
Since 1 June cooling degree days 722 667  
Growing Degree Days 34 (Base 50)    
Moisture  
Dew Point 73 °F    
Average Humidity 70    
Maximum Humidity 94    
Minimum Humidity 46    
Precipitation  
Precipitation 0.00 in 0.08 in 2.42 in (1886)
Month to date precipitation 0.00 0.40  
Year to date precipitation 6.45 10.73  
Sea Level Pressure  
Sea Level Pressure 29.89 in    
Wind  
Wind Speed 7 mph (East)    
Max Wind Speed 17 mph    
Max Gust Speed 23 mph    
Visibility 10 miles    
Events      
T = Trace of Precipitation, MM = Missing Value Source: NWS Daily Summary

Daily Weather History Graph

Daily Weather History Graph

Search for Another Location

Airport or City:

Trip Planner

Search our weather history database for the weather conditions in past years. The results will help you decide how hot, cold, wet, or windy it might be!

Date:

Astronomy

Jul. 05, 2013 Rise Set
Actual Time 6:43 AM CDT 8:25 PM CDT
Civil Twilight 6:17 AM CDT 8:51 PM CDT
Nautical Twilight 5:46 AM CDT 9:22 PM CDT
Astronomical Twilight 5:13 AM CDT 9:54 PM CDT
Moon 4:38 AM CDT (7/5) 6:25 PM CDT (7/5)
Length of Visible Light 14h 33m
Length of Day
13h 42m
Waning Crescent, 6% of the Moon is Illuminated
Jul 5
Waning Crescent
Jul 8
New
Jul 15
First Quarter
Jul 22
Full
Jul 29
Last Quarter

Hourly Weather History & Observations

Time (CDT) Temp. Heat Index Dew Point Humidity Pressure Visibility Wind Dir Wind Speed Gust Speed Precip Events Conditions
12:53 AM 79.0 °F - 73.0 °F 82% 29.94 in 10.0 mi SE 3.5 mph - N/A   Clear
1:53 AM 78.1 °F - 73.0 °F 84% 29.93 in 10.0 mi Calm Calm - N/A   Clear
2:53 AM 77.0 °F - 73.0 °F 88% 29.91 in 10.0 mi ESE 3.5 mph - N/A   Clear
3:53 AM 77.0 °F - 73.9 °F 90% 29.90 in 10.0 mi Calm Calm - N/A   Scattered Clouds
4:53 AM 77.0 °F - 73.9 °F 90% 29.89 in 10.0 mi Calm Calm - N/A   Scattered Clouds
5:53 AM 75.9 °F - 73.9 °F 94% 29.90 in 10.0 mi Calm Calm - N/A   Clear
6:53 AM 75.9 °F - 73.0 °F 91% 29.90 in 9.0 mi Calm Calm - N/A   Scattered Clouds
7:53 AM 80.1 °F 84.5 °F 73.9 °F 81% 29.91 in 10.0 mi Calm Calm - N/A   Clear
8:53 AM 84.0 °F 91.9 °F 75.0 °F 74% 29.92 in 10.0 mi NE 4.6 mph - N/A   Clear
9:53 AM 87.1 °F 95.4 °F 73.9 °F 65% 29.93 in 10.0 mi NNE 3.5 mph - N/A   Clear
10:53 AM 90.0 °F 95.4 °F 70.0 °F 52% 29.92 in 10.0 mi Calm Calm - N/A   Scattered Clouds
11:53 AM 89.1 °F 92.9 °F 68.0 °F 50% 29.92 in 10.0 mi Calm Calm - N/A   Partly Cloudy
12:53 PM 93.0 °F 99.0 °F 70.0 °F 47% 29.91 in 10.0 mi ENE 13.8 mph - N/A   Partly Cloudy
1:53 PM 93.9 °F 102.1 °F 72.0 °F 49% 29.89 in 10.0 mi ENE 13.8 mph - N/A   Mostly Cloudy
2:53 PM 93.9 °F 100.8 °F 71.1 °F 47% 29.88 in 10.0 mi ENE 12.7 mph 20.7 mph N/A   Mostly Cloudy
3:53 PM 93.0 °F 99.0 °F 70.0 °F 47% 29.86 in 10.0 mi East 13.8 mph - N/A   Scattered Clouds
4:53 PM 91.0 °F 97.6 °F 71.1 °F 52% 29.83 in 10.0 mi ENE 18.4 mph 23.0 mph N/A   Partly Cloudy
5:53 PM 90.0 °F 97.9 °F 73.0 °F 57% 29.82 in 10.0 mi East 15.0 mph 20.7 mph N/A   Partly Cloudy
6:29 PM 89.6 °F 98.2 °F 73.4 °F 59% 29.82 in 10.0 mi East 16.1 mph - N/A   Partly Cloudy
6:53 PM 88.0 °F 96.5 °F 73.9 °F 63% 29.82 in 10.0 mi East 13.8 mph - N/A   Partly Cloudy
7:53 PM 84.9 °F 93.3 °F 75.0 °F 72% 29.84 in 10.0 mi East 15.0 mph - N/A   Clear
8:53 PM 84.0 °F 92.6 °F 75.9 °F 76% 29.86 in 10.0 mi East 13.8 mph 20.7 mph N/A   Scattered Clouds
9:53 PM 82.9 °F 90.2 °F 75.0 °F 77% 29.87 in 10.0 mi East 10.4 mph - N/A   Clear
10:53 PM 82.0 °F 88.6 °F 75.0 °F 79% 29.88 in 10.0 mi East 8.1 mph - N/A   Clear
11:53 PM 82.0 °F 90.2 °F 77.0 °F 85% 29.88 in 10.0 mi ESE 5.8 mph - N/A   Clear